Coldwater, MI

2:26 AM EDT on September 24, 2017 (GMT -0400)
Branch County Memorial

Weather History for KOEB - October, 2013

Change the Weather History Date:

Sunday, October 13, 2013

  Actual Average (KJYM) Record (KJYM)
Temperature  
Mean Temperature 52 °F -  
Max Temperature 64 °F 62 °F 80 °F (1956)
Min Temperature 41 °F 38 °F 25 °F (1988)
Degree Days  
Heating Degree Days 12    
Growing Degree Days 2 (Base 50)    
Moisture  
Dew Point 46 °F    
Average Humidity 74    
Maximum Humidity 99    
Minimum Humidity 35    
Precipitation  
Precipitation 0.00 in - - ()
Sea Level Pressure  
Sea Level Pressure 30.28 in    
Wind  
Wind Speed 5 mph (WNW)    
Max Wind Speed 13 mph    
Max Gust Speed 18 mph    
Visibility 8 miles    
Events Fog    
Averages and records for this station are not official NWS values.
T = Trace of Precipitation, MM = Missing Value Source: NWS Daily Summary

Daily Weather History Graph

Daily Weather History Graph

Search for Another Location

Airport or City:

Trip Planner

Search our weather history database for the weather conditions in past years. The results will help you decide how hot, cold, wet, or windy it might be!

Date:

Astronomy

Oct. 13, 2013 Rise Set
Actual Time 7:50 AM EDT 7:01 PM EDT
Civil Twilight 7:22 AM EDT 7:29 PM EDT
Nautical Twilight 6:50 AM EDT 8:01 PM EDT
Astronomical Twilight 6:17 AM EDT 8:33 PM EDT
Moon 3:56 PM EDT (10/13) 1:54 AM EDT (10/13)
Length of Visible Light 12h 06m
Length of Day
11h 10m
Waxing Gibbous, 69% of the Moon is Illuminated
Oct 13
Waxing Gibbous
Oct 18
Full
Oct 26
Last Quarter
Nov 3
New
Nov 10
First Quarter

Hourly Weather History & Observations

Time (EDT) Temp. Windchill Dew Point Humidity Pressure Visibility Wind Dir Wind Speed Gust Speed Precip Events Conditions
12:15 AM 63.0 °F - 61.3 °F 94% 30.12 in 5.0 mi WNW 3.5 mph - N/A   Overcast
12:34 AM 62.6 °F - 61.2 °F 95% 30.13 in 4.0 mi West 3.5 mph - N/A   Overcast
12:55 AM 62.6 °F - 61.0 °F 94% 30.13 in 5.0 mi WNW 5.8 mph - N/A   Overcast
1:15 AM 62.2 °F - 60.4 °F 94% 30.14 in 5.0 mi WNW 5.8 mph - N/A   Mostly Cloudy
1:34 AM 61.5 °F - 59.7 °F 94% 30.14 in 5.0 mi WNW 6.9 mph - N/A   Mostly Cloudy
1:55 AM 60.6 °F - 58.8 °F 94% 30.15 in 5.0 mi WNW 6.9 mph - N/A   Scattered Clouds
2:15 AM 60.1 °F - 58.3 °F 94% 30.16 in 5.0 mi NW 5.8 mph - N/A   Mostly Cloudy
2:34 AM 59.4 °F - 57.0 °F 92% 30.17 in 7.0 mi WNW 5.8 mph - N/A   Scattered Clouds
2:55 AM 58.5 °F - 56.1 °F 92% 30.17 in 7.0 mi WNW 4.6 mph - N/A   Clear
3:15 AM 57.4 °F - 55.2 °F 92% 30.18 in 7.0 mi WNW 4.6 mph - N/A   Scattered Clouds
3:34 AM 55.6 °F - 53.8 °F 94% 30.18 in 7.0 mi WNW 6.9 mph - N/A   Scattered Clouds
3:55 AM 55.4 °F - 53.1 °F 92% 30.18 in 10.0 mi NW 4.6 mph - N/A   Clear
4:14 AM 54.7 °F - 52.0 °F 91% 30.18 in 10.0 mi NW 4.6 mph - N/A   Clear
4:34 AM 53.8 °F - 51.4 °F 92% 30.19 in 10.0 mi NW 3.5 mph - N/A   Clear
4:55 AM 52.2 °F - 50.4 °F 94% 30.21 in 10.0 mi WNW 3.5 mph - N/A   Clear
5:14 AM 49.8 °F - 48.9 °F 97% 30.22 in 7.0 mi West 3.5 mph - N/A   Clear
5:34 AM 50.0 °F - 49.5 °F 98% 30.23 in 7.0 mi WNW 3.5 mph - N/A   Clear
5:55 AM 49.6 °F - 49.1 °F 98% 30.23 in 7.0 mi Calm Calm - N/A   Clear
6:14 AM 50.9 °F - 50.4 °F 98% 30.24 in 7.0 mi Calm Calm - N/A   Clear
6:35 AM 48.2 °F - 47.8 °F 99% 30.25 in 5.0 mi Calm Calm - N/A   Clear
6:55 AM 47.7 °F - 47.3 °F 99% 30.25 in 3.0 mi Calm Calm - N/A   Clear
7:14 AM 45.5 °F - 45.1 °F 99% 30.26 in 1.0 mi Calm Calm - N/A   Mostly Cloudy
7:35 AM 44.2 °F 42.7 °F 43.9 °F 99% 30.27 in 0.5 mi West 3.5 mph - N/A Fog Fog
7:55 AM 42.8 °F 41.1 °F 42.4 °F 99% 30.27 in 0.2 mi West 3.5 mph - N/A Fog Fog
8:14 AM 43.9 °F - 43.3 °F 98% 30.28 in 1.8 mi Calm Calm - N/A   Scattered Clouds
8:35 AM 47.8 °F - 47.5 °F 99% 30.28 in 7.0 mi Calm Calm - N/A   Clear
8:55 AM 49.6 °F - 49.3 °F 99% 30.29 in 7.0 mi Calm Calm - N/A   Clear
9:14 AM 51.6 °F - 51.3 °F 99% 30.29 in 10.0 mi Calm Calm - N/A   Clear
9:35 AM 54.1 °F - 51.4 °F 91% 30.30 in 10.0 mi WNW 3.5 mph - N/A   Clear
9:55 AM 55.9 °F - 50.7 °F 83% 30.31 in 10.0 mi North - - N/A   Clear
10:14 AM 57.0 °F - 47.8 °F 71% 30.31 in 10.0 mi NNW 5.8 mph - N/A   Clear
10:35 AM 57.7 °F - 46.6 °F 66% 30.32 in 10.0 mi NNW 8.1 mph - N/A   Clear
10:54 AM 58.6 °F - 46.2 °F 63% 30.32 in 10.0 mi NNW 6.9 mph - N/A   Clear
11:14 AM 59.0 °F - 45.5 °F 61% 30.33 in 10.0 mi NNW 9.2 mph - N/A   Clear
11:35 AM 59.5 °F - 44.8 °F 58% 30.33 in 10.0 mi NNW 6.9 mph - N/A   Clear
11:54 AM 60.8 °F - 43.5 °F 53% 30.33 in 10.0 mi NNW 6.9 mph - N/A   Clear
12:15 PM 61.0 °F - 43.0 °F 52% 30.33 in 10.0 mi NW 8.1 mph - N/A   Clear
12:35 PM 61.9 °F - 40.3 °F 45% 30.33 in 10.0 mi WNW 9.2 mph - N/A   Clear
12:54 PM 62.2 °F - 41.0 °F 46% 30.32 in 10.0 mi WNW 11.5 mph - N/A   Clear
1:15 PM 63.0 °F - 41.7 °F 46% 30.32 in 10.0 mi NW 5.8 mph - N/A   Clear
1:35 PM 63.9 °F - 41.7 °F 44% 30.32 in 10.0 mi NW 10.4 mph - N/A   Clear
1:54 PM 63.7 °F - 40.8 °F 43% 30.32 in 10.0 mi WNW 11.5 mph 16.1 mph N/A   Clear
2:15 PM 64.4 °F - 41.9 °F 44% 30.31 in 10.0 mi WNW 9.2 mph - N/A   Clear
2:35 PM 64.4 °F - 42.1 °F 44% 30.31 in 10.0 mi West 12.7 mph 18.4 mph N/A   Clear
2:54 PM 64.8 °F - 42.6 °F 45% 30.30 in 10.0 mi NW 8.1 mph 16.1 mph N/A   Clear
3:15 PM 64.4 °F - 38.8 °F 39% 30.30 in 10.0 mi NW 10.4 mph 18.4 mph N/A   Clear
3:35 PM 64.6 °F - 38.8 °F 39% 30.31 in 10.0 mi WNW 11.5 mph - N/A   Clear
3:54 PM 64.6 °F - 36.5 °F 35% 30.30 in 10.0 mi WNW 12.7 mph 17.3 mph N/A   Clear
4:15 PM 64.2 °F - 37.4 °F 37% 30.30 in 10.0 mi West 10.4 mph - N/A   Clear
4:35 PM 63.5 °F - 38.3 °F 39% 30.30 in 10.0 mi West 9.2 mph - N/A   Clear
4:54 PM 62.4 °F - 37.8 °F 40% 30.31 in 10.0 mi NW 11.5 mph - N/A   Clear
5:15 PM 62.4 °F - 37.6 °F 40% 30.31 in 10.0 mi NW 11.5 mph - N/A   Clear
5:34 PM 61.7 °F - 36.3 °F 39% 30.31 in 10.0 mi West 9.2 mph - N/A   Clear
5:55 PM 60.8 °F - 38.8 °F 44% 30.31 in 10.0 mi WNW 9.2 mph - N/A   Clear
6:15 PM 59.2 °F - 39.2 °F 48% 30.31 in 10.0 mi WNW 8.1 mph - N/A   Clear
6:34 PM 57.9 °F - 39.0 °F 49% 30.32 in 10.0 mi NW 5.8 mph - N/A   Clear
6:55 PM 56.1 °F - 40.1 °F 55% 30.33 in 10.0 mi WNW 6.9 mph - N/A   Clear
7:15 PM 54.5 °F - 41.0 °F 60% 30.33 in 10.0 mi WNW 6.9 mph - N/A   Clear
7:34 PM 52.5 °F - 41.9 °F 67% 30.33 in 10.0 mi WNW 4.6 mph - N/A   Clear
7:55 PM 51.1 °F - 41.7 °F 70% 30.34 in 10.0 mi WNW 3.5 mph - N/A   Clear
8:14 PM 50.0 °F - 41.2 °F 72% 30.34 in 10.0 mi WNW 4.6 mph - N/A   Clear
8:34 PM 48.7 °F - 40.8 °F 74% 30.35 in 10.0 mi WNW 3.5 mph - N/A   Clear
8:55 PM 48.2 °F - 40.8 °F 76% 30.35 in 10.0 mi Calm Calm - N/A   Clear
9:14 PM 47.8 °F - 41.0 °F 77% 30.36 in 10.0 mi Calm Calm - N/A   Clear
9:35 PM 46.4 °F - 41.4 °F 83% 30.36 in 10.0 mi Calm Calm - N/A   Clear
9:55 PM 46.0 °F 44.8 °F 41.0 °F 83% 30.36 in 10.0 mi WNW 3.5 mph - N/A   Clear
10:14 PM 45.0 °F - 40.8 °F 85% 30.36 in 10.0 mi Calm Calm - N/A   Clear
10:35 PM 44.1 °F - 40.6 °F 88% 30.36 in 10.0 mi Calm Calm - N/A   Clear
10:55 PM 41.4 °F - 39.2 °F 92% 30.36 in 10.0 mi Calm Calm - N/A   Clear
11:14 PM 41.5 °F - 39.9 °F 94% 30.36 in 10.0 mi Calm Calm - N/A   Clear
11:35 PM 41.0 °F - 39.6 °F 95% 30.37 in 10.0 mi Calm Calm - N/A   Clear
11:55 PM 41.2 °F - 40.3 °F 97% 30.38 in 10.0 mi Calm Calm - N/A   Clear